Vorticity
-2 -2 -1 -1 -0 0 0 0 0 1 1 2 3 5 6 7 8 9 10 12 13 12 12 12 12 12 11 11 10 9 8 7 7 6 6 5 5 4 4 4 4 4 4 5 4 4 4 5 9 12 13 10 12 15 20 26 29 29 28 25 26 32 39 41 28 19 15 13 13
3 3 3 3 3 2 2 3 3 3 4 5 6 6 7 8 9 10 11 13 12 11 10 11 12 12 11 11 11 10 9 8 8 8 7 7 7 6 5 5 5 5 5 5 5 5 4 4 6 9 12 12 8 3 1 6 14 20 25 31 35 38 38 33 20 9 1 -3 -4
4 4 4 4 4 4 4 5 5 5 6 7 8 8 9 10 11 11 12 11 10 11 11 11 11 11 11 11 12 12 12 11 10 10 10 10 9 9 8 7 6 6 5 6 6 7 7 7 6 8 10 12 11 5 -2 -4 -1 3 9 15 24 30 34 33 24 10 -5 -18 -23
5 5 5 5 5 6 6 6 6 8 9 9 9 11 12 13 13 12 11 10 11 12 12 10 9 9 9 10 11 12 13 13 13 13 12 13 12 12 11 10 9 8 7 7 7 8 9 10 9 9 9 11 14 13 9 2 -3 -3 -0 4 8 13 19 27 29 23 11 -6 -15
8 8 7 6 6 6 7 8 9 10 10 10 10 12 13 13 13 12 11 12 12 11 9 8 7 7 7 6 7 8 10 11 12 13 13 14 14 14 14 13 12 11 10 9 9 9 10 11 11 10 10 10 13 13 11 7 1 -1 -0 2 1 1 2 8 16 19 16 8 3
8 8 8 8 8 8 9 11 11 11 11 11 11 12 13 12 11 10 10 10 9 7 7 6 5 4 4 3 3 4 4 5 6 8 9 11 12 13 13 14 14 14 13 13 12 11 12 12 12 10 8 5 6 7 8 9 5 3 2 2 1 -0 -0 1 5 8 8 7 6
7 7 8 9 10 10 11 11 11 10 10 10 11 10 9 7 7 6 6 5 4 4 3 2 2 2 1 1 1 1 1 2 2 3 4 5 6 7 8 10 11 13 14 15 14 14 13 13 13 12 10 6 4 3 3 4 4 4 3 0 -0 1 3 5 7 7 7 5 6
8 9 9 9 9 9 9 9 8 8 7 8 7 5 3 2 2 1 1 1 1 1 1 0 0 0 0 1 1 1 1 1 1 1 1 1 2 2 3 4 5 7 9 11 13 14 14 13 13 13 14 13 12 10 8 4 2 0 -2 -6 -3 1 6 9 10 10 9 8 9
9 9 9 9 10 10 9 9 8 7 6 5 4 2 1 0 0 -0 -0 -0 -0 -0 -0 -0 0 0 0 1 1 1 1 1 1 1 1 1 1 1 1 1 2 3 4 5 8 10 12 13 14 14 14 14 13 12 11 9 5 0 -5 -8 -2 3 8 11 11 10 10 9 10
9 9 9 10 10 10 9 8 7 6 5 3 2 1 1 1 1 0 0 0 -0 -0 -0 0 0 1 1 1 1 1 1 1 1 1 1 1 2 2 2 2 2 2 2 2 3 4 6 9 11 13 15 15 14 13 12 9 7 5 3 2 6 9 11 10 9 9 9 10 10
10 10 10 9 7 7 6 5 5 4 4 3 2 2 2 1 1 1 1 0 0 0 0 1 0 1 1 1 2 2 2 2 1 1 1 2 2 2 3 3 3 2 2 2 2 2 3 4 6 8 11 13 15 16 16 15 13 13 13 13 12 11 9 8 10 13 15 15 13
10 9 8 7 5 4 4 3 3 2 2 2 2 2 2 2 1 1 1 1 1 1 1 1 0 1 1 1 2 2 2 3 2 2 2 2 2 3 3 4 4 4 4 3 3 3 3 2 3 4 5 7 10 12 14 16 17 16 16 15 13 10 9 9 12 16 19 20 18
6 5 4 4 3 3 3 3 2 2 2 2 2 2 2 2 2 2 1 1 1 1 1 1 1 1 1 1 2 2 2 3 3 3 4 4 4 4 4 4 5 5 5 5 4 3 3 3 2 2 3 3 4 6 8 11 13 14 14 14 14 13 12 11 11 12 14 16 15
3 3 3 3 3 3 3 3 2 2 2 2 2 2 2 2 2 2 2 2 2 2 2 2 2 2 2 2 2 2 3 3 3 4 5 5 5 5 5 5 6 6 5 5 5 4 4 4 3 3 2 2 2 3 4 6 8 10 12 13 13 13 12 9 6 5 5 6 5
3 3 3 3 3 3 3 3 3 3 3 3 3 3 3 3 3 3 3 3 3 4 4 4 4 4 4 4 4 5 5 5 5 5 5 6 6 6 6 6 7 7 7 7 6 6 6 5 5 4 3 2 2 2 3 3 5 7 9 11 12 12 12 10 8 5 2 1 -0
3 2 2 2 2 2 2 2 2 3 3 3 3 4 4 5 5 5 6 6 7 7 7 7 8 8 8 8 8 8 8 8 8 7 7 7 6 6 6 6 7 7 8 8 8 8 8 8 7 6 5 4 3 3 3 3 4 5 6 8 9 11 12 12 12 10 9 7 5
1 1 1 1 1 1 2 2 2 3 3 3 4 5 6 6 7 8 8 9 9 10 10 11 11 11 11 11 12 11 11 11 11 10 10 9 8 7 7 6 7 7 7 8 9 9 9 10 10 9 8 6 5 4 3 3 3 4 4 5 7 9 10 12 12 13 13 12 11
1 1 1 1 1 2 2 3 3 4 4 5 6 6 7 8 8 9 10 10 10 11 11 11 11 12 12 12 12 12 12 12 12 12 12 11 10 9 9 8 8 8 8 8 9 9 10 10 11 10 10 9 8 6 5 4 4 3 3 3 5 6 8 9 10 11 12 12 12
2 2 2 3 3 4 4 5 5 6 7 7 8 8 8 9 9 9 9 9 10 10 10 10 10 10 11 11 11 11 12 12 12 12 12 12 11 11 11 10 10 9 9 8 9 9 9 10 10 10 10 10 9 8 7 6 5 5 4 3 4 5 6 7 7 8 9 10 10
4 5 5 6 6 7 7 7 8 8 8 8 8 8 8 8 8 8 8 8 8 8 8 8 8 9 9 9 10 10 11 11 11 12 12 12 12 12 12 12 11 11 10 9 9 9 9 9 10 10 10 10 9 9 9 8 7 7 6 5 5 5 5 6 6 7 7 8 8
6 7 7 8 8 8 8 8 8 8 7 7 7 7 7 7 7 7 7 7 7 7 8 8 8 8 8 9 9 9 10 10 11 11 11 12 12 12 12 12 12 11 11 10 10 9 9 9 9 9 10 10 10 10 9 9 8 8 8 7 7 6 6 6 6 6 6 7 7
8 8 7 7 7 7 7 7 6 6 6 6 7 7 7 7 7 8 8 8 8 9 9 9 9 9 9 9 9 9 9 9 10 10 11 11 11 12 12 12 12 12 12 11 11 10 9 9 9 9 10 10 10 10 10 10 9 9 8 8 8 7 7 7 7 7 7 7 7
7 7 7 7 6 6 6 6 7 7 7 8 8 9 9 9 9 10 10 10 10 10 10 10 10 10 10 10 10 10 10 9 10 10 10 10 11 11 11 11 11 12 12 12 12 11 10 10 9 9 9 10 10 10 10 10 10 10 9 9 8 8 8 8 8 8 8 8 8
6 6 6 6 7 7 7 8 8 9 10 10 11 11 11 12 12 12 12 12 12 11 11 11 11 11 11 10 10 10 10 10 9 9 9 10 10 10 10 10 11 11 11 11 12 12 12 11 10 10 10 10 10 10 10 10 11 11 11 10 9 9 9 8 8 8 9 9 9
6 6 7 8 8 9 10 11 11 12 13 13 13 13 13 13 13 13 13 12 12 12 11 11 11 11 10 10 10 10 10 10 10 9 9 9 9 9 9 10 10 10 10 11 11 11 12 12 11 11 10 10 10 10 10 10 11 11 11 11 11 10 10 9 9 9 9 10 10
9 10 11 11 12 13 13 14 14 14 14 14 14 14 14 13 13 13 13 12 12 12 12 11 11 11 10 10 10 10 10 10 10 9 9 9 9 9 9 9 10 10 10 10 11 11 11 11 11 11 11 11 10 10 10 10 10 11 11 11 11 11 11 11 10 10 10 10 11
14 14 15 15 16 16 16 15 15 15 14 14 13 13 13 13 12 12 12 12 12 12 12 12 11 11 11 11 11 10 10 10 10 10 9 9 9 9 9 9 9 9 10 10 10 11 11 11 11 11 11 11 11 10 10 10 10 10 10 11 11 11 12 12 11 11 11 11 11
17 17 17 17 16 16 15 14 14 13 13 13 12 12 12 12 12 12 12 12 12 12 12 12 12 12 12 11 11 11 11 10 9 9 9 9 9 9 9 8 9 9 9 10 10 10 11 11 11 11 11 10 10 10 10 10 10 10 10 10 11 11 12 12 12 12 12 11 12
17 16 16 15 14 14 13 13 12 12 12 12 12 12 12 12 12 12 12 12 12 13 13 13 13 13 12 12 13 13 12 12 11 10 9 9 9 8 8 8 8 8 9 9 9 10 10 11 11 11 11 11 11 10 10 10 10 10 10 10 11 11 11 12 12 12 12 12 12
14 13 13 12 12 11 11 11 11 11 11 12 12 12 12 13 13 13 13 13 14 14 14 14 14 14 14 15 15 14 14 14 13 13 11 10 9 9 8 8 9 9 9 9 9 9 9 10 11 12 13 12 12 11 11 10 10 10 10 11 11 11 12 12 12 12 13 13 13
11 11 10 10 11 11 11 11 12 12 12 12 13 13 13 14 14 14 14 14 14 14 14 15 15 16 16 17 17 17 17 17 16 16 15 13 12 10 9 9 9 9 9 10 10 9 9 9 10 12 13 14 13 13 12 11 11 11 10 11 11 11 12 12 12 13 13 13 13
10 10 10 11 11 12 12 12 12 13 13 13 13 14 14 14 14 14 14 14 14 14 14 15 16 16 17 18 19 20 20 20 19 19 18 17 16 14 12 10 9 9 9 9 10 10 9 8 9 11 13 14 15 14 14 13 12 11 11 11 11 11 11 12 12 13 13 13 13
10 11 11 11 11 12 12 12 12 12 12 12 13 13 13 13 13 13 13 13 13 13 13 13 14 14 15 16 18 20 21 22 22 22 22 21 20 19 17 15 12 10 9 8 9 9 9 8 8 9 11 13 15 15 15 14 13 12 11 11 11 11 11 12 12 12 13 13 13
10 10 11 11 11 11 11 11 11 11 11 11 11 11 11 11 11 11 11 11 11 11 11 11 12 12 13 14 15 17 19 21 22 23 23 24 24 23 22 20 18 15 13 10 8 8 8 7 6 7 8 11 14 15 16 16 15 13 12 11 11 11 11 11 11 12 12 12 13
9 9 10 10 10 10 10 10 10 10 10 10 10 10 10 10 10 9 9 9 9 9 10 11 11 11 12 13 14 15 15 16 18 20 21 23 24 24 24 24 23 22 20 16 12 9 7 6 5 4 5 7 11 14 16 17 16 15 14 13 12 12 11 12 11 11 12 12 12
9 9 9 9 9 9 9 9 9 9 9 9 9 9 9 9 9 9 8 8 8 9 9 10 10 11 12 13 14 15 15 14 14 15 17 18 20 22 24 25 26 26 26 24 20 16 12 8 5 3 2 4 7 11 14 16 17 17 16 15 14 13 12 12 12 11 11 12 12
9 9 8 9 9 9 9 9 9 9 9 9 9 9 9 8 8 8 8 8 8 8 9 9 10 11 12 13 14 15 15 15 13 12 12 12 14 15 18 21 24 26 28 28 26 24 20 15 10 6 3 2 4 7 10 14 17 18 18 17 16 15 14 13 12 12 12 11 11
9 8 8 8 9 9 9 9 9 9 9 9 9 9 8 8 8 8 8 8 8 8 8 9 10 11 12 13 13 14 15 16 14 12 10 9 8 8 9 11 15 19 23 26 26 26 25 23 19 13 8 5 4 4 7 10 15 17 18 17 17 17 16 15 14 13 12 12 11
8 8 8 8 8 9 9 9 9 10 9 9 9 9 9 9 8 8 8 9 8 8 8 8 9 10 11 12 13 14 15 16 15 14 12 9 8 6 5 4 6 9 13 17 19 22 23 25 24 20 16 11 8 7 6 8 13 15 15 13 14 17 19 19 17 15 14 12 12
8 8 8 9 9 9 9 9 10 10 10 9 9 9 9 9 8 8 8 9 9 8 8 8 9 9 10 11 12 13 14 15 16 15 14 12 10 9 7 5 4 5 7 9 11 13 16 19 22 22 20 17 14 12 10 9 12 14 13 8 7 12 18 22 20 18 15 13 12
8 8 9 9 9 9 9 10 10 10 10 10 9 9 9 9 8 8 8 9 9 8 8 8 9 9 10 11 11 12 13 14 15 15 15 14 12 12 11 9 8 8 8 8 8 9 10 12 15 17 18 17 17 16 15 14 15 15 12 4 -0 5 14 22 23 21 18 15 13
Height
3096 3096 3096 3097 3097 3097 3097 3097 3097 3097 3096 3096 3095 3094 3094 3094 3094 3094 3094 3095 3095 3095 3095 3095 3095 3095 3095 3095 3095 3096 3096 3096 3097 3097 3096 3096 3096 3096 3095 3095 3094 3093 3093 3093 3093 3092 3092 3091 3091 3090 3090 3090 3090 3089 3088 3088 3089 3089 3090 3090 3090 3090 3091 3092 3093 3093 3093 3093 3094
3095 3095 3095 3095 3095 3095 3095 3095 3095 3095 3095 3094 3094 3093 3093 3093 3093 3093 3093 3093 3093 3093 3093 3093 3093 3093 3093 3093 3093 3093 3093 3094 3094 3094 3094 3094 3093 3093 3093 3092 3092 3091 3091 3091 3091 3090 3090 3089 3089 3088 3088 3088 3088 3088 3087 3088 3088 3088 3088 3088 3088 3089 3090 3091 3091 3091 3091 3091 3092
3093 3093 3093 3093 3093 3093 3093 3093 3093 3093 3093 3093 3093 3092 3092 3092 3092 3092 3092 3092 3092 3092 3092 3092 3092 3092 3092 3092 3091 3091 3091 3091 3092 3092 3091 3091 3091 3091 3090 3090 3090 3089 3089 3089 3088 3088 3088 3088 3087 3087 3086 3086 3086 3087 3087 3087 3086 3086 3086 3086 3087 3088 3088 3089 3089 3089 3089 3089 3089
3091 3091 3091 3091 3091 3091 3092 3092 3092 3092 3091 3091 3091 3091 3091 3090 3090 3090 3090 3090 3090 3090 3090 3090 3090 3090 3090 3090 3090 3090 3090 3089 3089 3089 3089 3089 3089 3089 3088 3088 3088 3087 3087 3087 3086 3086 3086 3086 3085 3085 3084 3084 3084 3084 3085 3085 3085 3084 3084 3084 3085 3086 3086 3087 3088 3088 3088 3088 3088
3090 3090 3090 3090 3090 3090 3090 3090 3090 3090 3090 3090 3090 3089 3089 3089 3089 3089 3089 3089 3089 3089 3089 3089 3089 3089 3089 3089 3088 3088 3088 3088 3088 3088 3088 3087 3087 3087 3087 3086 3086 3085 3085 3085 3084 3084 3084 3084 3084 3083 3083 3082 3082 3082 3083 3083 3083 3083 3083 3083 3083 3084 3084 3084 3085 3086 3086 3086 3086
3088 3088 3088 3088 3088 3088 3088 3089 3089 3089 3089 3088 3088 3088 3088 3088 3088 3088 3088 3088 3088 3088 3088 3088 3088 3088 3088 3088 3087 3087 3087 3087 3086 3086 3086 3086 3086 3085 3085 3084 3084 3084 3083 3083 3083 3082 3082 3082 3082 3082 3082 3081 3081 3081 3081 3082 3082 3082 3082 3082 3082 3083 3083 3083 3082 3083 3083 3083 3083
3087 3087 3087 3087 3088 3088 3088 3088 3088 3088 3088 3088 3087 3087 3087 3087 3087 3086 3086 3086 3086 3086 3086 3086 3086 3086 3086 3086 3086 3086 3085 3085 3085 3085 3084 3084 3084 3084 3083 3083 3083 3082 3082 3082 3081 3081 3080 3080 3080 3080 3080 3080 3079 3079 3079 3079 3080 3080 3080 3080 3080 3080 3080 3080 3080 3080 3080 3080 3080
3086 3086 3086 3086 3086 3086 3086 3086 3086 3086 3086 3086 3086 3086 3086 3085 3085 3085 3085 3085 3085 3085 3085 3085 3085 3085 3084 3084 3084 3084 3084 3083 3083 3083 3083 3083 3083 3082 3082 3082 3081 3081 3080 3080 3079 3079 3078 3078 3078 3078 3078 3078 3078 3078 3078 3078 3078 3077 3077 3078 3078 3078 3078 3078 3078 3078 3078 3078 3078
3084 3085 3085 3085 3085 3085 3085 3085 3085 3085 3085 3085 3085 3085 3084 3084 3084 3083 3083 3083 3083 3083 3083 3083 3083 3083 3083 3083 3082 3082 3082 3082 3081 3081 3081 3080 3080 3080 3080 3080 3080 3079 3079 3078 3078 3078 3077 3077 3076 3076 3076 3076 3076 3076 3076 3076 3075 3075 3075 3075 3075 3075 3075 3075 3075 3075 3075 3075 3075
3083 3083 3083 3083 3083 3083 3083 3083 3083 3083 3083 3083 3083 3083 3083 3083 3082 3082 3082 3082 3082 3081 3081 3081 3081 3081 3080 3080 3080 3080 3080 3079 3079 3079 3078 3078 3078 3078 3078 3078 3078 3077 3077 3077 3076 3076 3075 3075 3074 3074 3074 3074 3073 3073 3073 3073 3073 3073 3072 3072 3072 3072 3072 3072 3072 3072 3072 3072 3072
3082 3082 3082 3082 3082 3082 3082 3082 3082 3082 3082 3082 3082 3082 3081 3081 3081 3081 3080 3080 3080 3080 3079 3079 3079 3078 3078 3078 3078 3078 3077 3077 3077 3077 3076 3076 3075 3075 3075 3075 3074 3074 3074 3074 3074 3073 3073 3073 3073 3072 3072 3072 3072 3071 3071 3071 3071 3070 3070 3069 3069 3069 3069 3069 3069 3069 3069 3069 3069
3081 3081 3081 3081 3081 3081 3081 3081 3081 3081 3081 3080 3080 3080 3080 3079 3079 3079 3079 3078 3078 3078 3078 3077 3077 3076 3076 3076 3076 3075 3075 3075 3074 3074 3074 3073 3073 3073 3073 3072 3072 3071 3071 3071 3071 3071 3071 3070 3070 3070 3070 3070 3069 3069 3069 3069 3068 3068 3068 3067 3067 3067 3067 3066 3066 3066 3066 3066 3066
3080 3080 3080 3080 3080 3080 3080 3079 3079 3079 3079 3079 3078 3078 3078 3078 3078 3077 3077 3077 3076 3076 3076 3075 3075 3074 3074 3073 3073 3073 3073 3072 3072 3072 3071 3071 3071 3071 3070 3070 3069 3069 3068 3068 3068 3068 3068 3067 3067 3067 3067 3067 3067 3067 3067 3066 3066 3066 3065 3065 3065 3065 3065 3064 3064 3064 3064 3064 3063
3079 3079 3079 3079 3078 3078 3078 3078 3078 3078 3077 3077 3077 3076 3076 3076 3075 3075 3075 3074 3074 3074 3073 3073 3073 3072 3072 3071 3071 3070 3070 3070 3069 3069 3068 3068 3068 3068 3068 3067 3067 3066 3066 3066 3065 3065 3065 3064 3064 3064 3064 3064 3064 3064 3064 3064 3063 3063 3063 3063 3063 3062 3062 3062 3062 3062 3062 3062 3062
3078 3078 3077 3077 3077 3077 3077 3076 3076 3076 3075 3075 3075 3074 3074 3074 3073 3073 3073 3072 3072 3071 3071 3070 3070 3069 3069 3068 3068 3068 3067 3067 3066 3066 3066 3065 3065 3065 3064 3064 3064 3063 3063 3063 3063 3062 3062 3062 3062 3061 3061 3061 3061 3061 3061 3061 3061 3060 3060 3060 3060 3060 3060 3059 3059 3059 3059 3059 3059
3076 3076 3076 3075 3075 3075 3074 3074 3074 3074 3073 3073 3073 3072 3072 3071 3071 3070 3070 3069 3069 3068 3068 3068 3067 3066 3066 3065 3065 3065 3064 3064 3063 3063 3063 3062 3062 3062 3061 3061 3061 3060 3060 3060 3059 3059 3059 3059 3058 3058 3058 3058 3057 3057 3057 3058 3057 3057 3057 3057 3057 3057 3057 3056 3056 3056 3056 3056 3056
3074 3073 3073 3073 3073 3073 3072 3072 3072 3071 3071 3070 3070 3069 3069 3068 3068 3068 3067 3066 3066 3066 3065 3064 3064 3063 3063 3062 3062 3061 3061 3060 3060 3060 3059 3059 3059 3058 3058 3058 3058 3057 3057 3056 3056 3056 3056 3056 3055 3055 3054 3054 3054 3053 3054 3054 3054 3054 3054 3054 3054 3054 3053 3053 3053 3053 3053 3053 3053
3072 3071 3071 3071 3070 3070 3069 3069 3069 3068 3068 3068 3067 3067 3066 3065 3065 3064 3064 3063 3063 3062 3062 3061 3061 3060 3060 3059 3058 3058 3058 3057 3057 3056 3056 3056 3055 3055 3055 3054 3054 3054 3053 3053 3053 3052 3052 3052 3052 3052 3051 3051 3050 3050 3050 3050 3050 3050 3050 3050 3050 3050 3050 3050 3050 3050 3050 3049 3049
3069 3069 3068 3068 3068 3067 3067 3066 3066 3065 3065 3064 3064 3063 3063 3063 3062 3061 3061 3060 3059 3059 3058 3058 3057 3057 3056 3056 3055 3055 3054 3054 3053 3053 3053 3053 3052 3052 3051 3051 3051 3050 3050 3049 3049 3049 3048 3048 3048 3048 3048 3048 3047 3047 3047 3047 3046 3046 3047 3047 3047 3047 3047 3047 3046 3046 3046 3046 3046
3068 3067 3067 3066 3065 3065 3064 3064 3063 3063 3062 3062 3061 3060 3060 3059 3059 3058 3057 3057 3056 3055 3055 3054 3053 3053 3053 3052 3052 3051 3051 3051 3050 3050 3049 3049 3049 3048 3048 3048 3047 3047 3046 3046 3046 3045 3045 3045 3045 3044 3044 3044 3044 3043 3043 3043 3043 3043 3043 3043 3043 3043 3043 3043 3043 3043 3043 3042 3042
3065 3065 3064 3064 3063 3063 3062 3062 3061 3060 3059 3059 3058 3058 3057 3056 3056 3055 3054 3053 3053 3052 3051 3050 3050 3049 3049 3048 3048 3048 3047 3047 3047 3046 3046 3046 3045 3045 3044 3044 3043 3043 3043 3043 3042 3042 3042 3041 3041 3041 3041 3040 3040 3040 3040 3039 3039 3039 3039 3039 3039 3039 3039 3039 3038 3038 3038 3038 3039
3063 3062 3062 3061 3061 3060 3060 3059 3058 3058 3057 3056 3055 3055 3054 3053 3052 3052 3051 3050 3049 3048 3047 3047 3046 3045 3045 3044 3044 3043 3043 3043 3043 3043 3042 3042 3042 3041 3041 3040 3040 3039 3039 3039 3038 3038 3038 3038 3038 3037 3037 3037 3037 3036 3036 3036 3035 3035 3035 3035 3035 3035 3035 3035 3035 3035 3035 3035 3035
3059 3059 3058 3058 3058 3057 3057 3056 3055 3054 3054 3053 3052 3051 3051 3050 3049 3048 3047 3046 3045 3044 3043 3043 3042 3042 3041 3040 3040 3040 3039 3039 3038 3038 3038 3038 3038 3037 3037 3037 3036 3035 3035 3035 3035 3035 3034 3034 3034 3033 3033 3033 3033 3033 3032 3032 3032 3031 3031 3031 3031 3031 3031 3031 3031 3031 3031 3031 3031
3057 3056 3055 3055 3054 3053 3053 3052 3052 3051 3050 3049 3048 3048 3047 3046 3045 3044 3043 3042 3041 3041 3040 3039 3038 3038 3037 3037 3036 3035 3035 3035 3034 3034 3034 3033 3033 3033 3033 3032 3032 3032 3031 3031 3031 3031 3031 3030 3030 3030 3029 3029 3029 3028 3028 3028 3028 3028 3028 3028 3027 3027 3027 3027 3027 3027 3027 3027 3027
3054 3053 3052 3052 3051 3050 3049 3048 3047 3047 3046 3045 3044 3043 3042 3042 3041 3040 3039 3038 3038 3037 3036 3035 3034 3034 3033 3033 3032 3031 3031 3030 3030 3029 3029 3029 3029 3028 3028 3028 3028 3028 3027 3027 3027 3027 3027 3027 3026 3026 3025 3025 3025 3024 3024 3024 3024 3024 3024 3023 3023 3023 3023 3023 3023 3023 3023 3023 3024
3051 3050 3049 3048 3047 3046 3045 3044 3043 3043 3042 3041 3040 3039 3038 3037 3036 3036 3035 3034 3033 3033 3032 3031 3030 3030 3029 3029 3028 3028 3027 3026 3026 3025 3025 3024 3024 3024 3023 3023 3023 3023 3023 3023 3023 3023 3023 3022 3022 3022 3021 3021 3020 3020 3020 3020 3020 3020 3020 3019 3019 3019 3019 3019 3019 3020 3020 3020 3020
3048 3047 3046 3045 3044 3043 3042 3041 3040 3039 3038 3037 3036 3035 3034 3033 3033 3032 3031 3030 3029 3028 3028 3027 3026 3026 3025 3025 3024 3023 3023 3022 3022 3021 3020 3020 3019 3019 3019 3019 3019 3019 3018 3018 3018 3018 3018 3018 3018 3017 3017 3016 3016 3015 3015 3015 3015 3016 3015 3015 3015 3015 3015 3015 3016 3016 3016 3016 3017
3044 3043 3042 3042 3041 3040 3038 3038 3037 3035 3034 3033 3033 3032 3031 3030 3029 3028 3027 3026 3026 3025 3024 3023 3022 3022 3021 3021 3020 3019 3019 3018 3018 3017 3016 3016 3015 3015 3014 3014 3014 3014 3014 3014 3014 3014 3014 3013 3013 3013 3012 3012 3011 3011 3011 3011 3011 3011 3011 3011 3011 3011 3011 3012 3012 3012 3012 3012 3013
3041 3040 3039 3038 3037 3036 3035 3034 3033 3032 3031 3031 3030 3029 3028 3027 3026 3025 3024 3023 3022 3021 3020 3019 3019 3018 3017 3017 3016 3015 3015 3014 3013 3013 3012 3012 3011 3010 3010 3010 3010 3010 3010 3010 3010 3010 3009 3009 3009 3009 3008 3008 3007 3007 3006 3006 3006 3006 3006 3007 3007 3007 3007 3008 3008 3008 3008 3008 3008
3038 3037 3036 3035 3034 3033 3033 3031 3030 3029 3028 3028 3027 3026 3025 3024 3023 3022 3021 3020 3019 3018 3017 3016 3015 3015 3014 3013 3012 3012 3011 3010 3009 3009 3008 3008 3007 3007 3006 3006 3005 3005 3005 3006 3006 3006 3005 3005 3005 3005 3004 3003 3003 3002 3002 3002 3002 3002 3002 3002 3003 3003 3003 3003 3003 3004 3004 3004 3004
3035 3034 3033 3032 3031 3030 3029 3028 3028 3027 3026 3025 3024 3023 3022 3021 3020 3019 3018 3017 3016 3015 3014 3013 3012 3011 3010 3010 3009 3008 3007 3006 3005 3005 3004 3003 3003 3002 3002 3002 3001 3001 3001 3001 3001 3001 3001 3001 3001 3001 3000 2999 2999 2998 2998 2998 2998 2998 2998 2998 2998 2998 2998 2999 2999 2999 3000 3000 3001
3032 3031 3030 3029 3028 3028 3027 3026 3025 3024 3023 3022 3021 3020 3019 3018 3017 3016 3015 3014 3013 3012 3011 3010 3008 3008 3007 3006 3005 3004 3003 3002 3001 3000 3000 2999 2998 2998 2997 2997 2997 2997 2997 2997 2997 2997 2998 2998 2998 2997 2997 2996 2995 2994 2994 2993 2993 2993 2993 2993 2994 2994 2994 2995 2995 2995 2996 2996 2997
3029 3028 3027 3027 3026 3025 3023 3023 3022 3020 3019 3018 3017 3016 3015 3014 3013 3012 3011 3010 3008 3008 3006 3005 3004 3003 3003 3002 3001 3000 2999 2998 2997 2996 2995 2994 2994 2993 2993 2993 2992 2993 2993 2993 2993 2993 2993 2993 2993 2993 2993 2992 2991 2990 2990 2989 2989 2989 2989 2989 2989 2990 2990 2990 2991 2991 2992 2992 2993
3026 3025 3024 3023 3023 3021 3020 3019 3018 3017 3016 3015 3014 3013 3011 3010 3009 3008 3007 3006 3004 3003 3002 3001 3000 2999 2998 2997 2996 2995 2994 2993 2993 2992 2991 2990 2989 2988 2988 2988 2988 2988 2988 2989 2988 2989 2989 2989 2990 2989 2989 2988 2987 2986 2986 2985 2985 2985 2985 2985 2985 2986 2986 2986 2987 2987 2988 2988 2988
3023 3023 3021 3020 3019 3018 3017 3016 3015 3013 3012 3011 3010 3009 3008 3006 3005 3004 3003 3001 3000 2999 2998 2997 2996 2995 2993 2993 2992 2991 2990 2989 2988 2988 2987 2986 2985 2984 2983 2983 2983 2984 2984 2984 2984 2984 2985 2985 2986 2986 2985 2984 2983 2983 2982 2982 2981 2981 2981 2981 2981 2982 2982 2982 2983 2983 2983 2984 2985
3021 3019 3018 3017 3016 3015 3014 3012 3011 3010 3009 3008 3006 3005 3004 3003 3001 3000 2999 2998 2996 2995 2994 2993 2992 2991 2989 2988 2988 2987 2986 2985 2984 2983 2983 2982 2981 2980 2979 2979 2979 2979 2980 2980 2980 2980 2980 2981 2981 2981 2981 2980 2979 2978 2978 2978 2977 2977 2977 2977 2977 2978 2978 2978 2978 2979 2979 2980 2981
3018 3016 3015 3014 3013 3012 3010 3009 3008 3007 3005 3004 3003 3002 3000 2999 2998 2997 2995 2994 2992 2991 2990 2989 2988 2987 2986 2985 2984 2983 2982 2981 2980 2979 2978 2978 2977 2976 2975 2975 2975 2975 2975 2975 2975 2975 2975 2976 2976 2977 2977 2976 2975 2974 2974 2973 2973 2973 2973 2973 2973 2973 2974 2974 2974 2974 2975 2976 2977
3014 3013 3012 3010 3009 3008 3007 3006 3004 3003 3002 3001 2999 2998 2997 2996 2994 2993 2992 2990 2989 2987 2986 2985 2984 2983 2982 2981 2980 2979 2978 2978 2977 2975 2974 2974 2973 2973 2972 2971 2970 2971 2971 2971 2970 2970 2970 2971 2971 2972 2972 2971 2970 2970 2970 2969 2969 2969 2969 2969 2969 2969 2969 2970 2970 2970 2971 2972 2973
3011 3010 3008 3007 3006 3005 3003 3002 3001 3000 2998 2997 2996 2995 2993 2992 2991 2989 2988 2987 2985 2983 2982 2981 2980 2979 2978 2977 2976 2975 2974 2973 2973 2972 2971 2970 2969 2968 2968 2967 2966 2966 2967 2967 2966 2966 2966 2966 2966 2967 2966 2966 2966 2965 2965 2965 2965 2965 2964 2965 2965 2965 2966 2966 2966 2966 2967 2968 2969
3008 3007 3005 3004 3002 3001 3000 2999 2998 2996 2995 2993 2992 2991 2990 2988 2987 2986 2984 2983 2982 2980 2978 2977 2976 2975 2974 2973 2972 2971 2970 2969 2969 2968 2967 2966 2965 2964 2963 2963 2962 2962 2962 2962 2962 2961 2961 2961 2962 2962 2962 2961 2961 2960 2961 2961 2960 2960 2960 2961 2961 2961 2961 2962 2962 2962 2963 2963 2965
3005 3003 3002 3000 2999 2998 2996 2995 2994 2993 2991 2990 2988 2987 2986 2984 2983 2982 2981 2979 2978 2976 2975 2973 2972 2971 2970 2969 2968 2966 2965 2965 2965 2964 2963 2962 2961 2960 2959 2958 2958 2957 2957 2958 2957 2957 2957 2957 2957 2957 2957 2956 2956 2955 2956 2956 2956 2956 2956 2956 2957 2957 2957 2957 2958 2958 2959 2960 2961